2016-02-15 00:01:42 r, 18.48m,0000000003Hz,0000135261c,0000000.294s, 007.7C,00002191
2016-02-15 00:11:42 r, 18.73m,0000000003Hz,0000171994c,0000000.373s, 007.7C,00002191
2016-02-15 00:21:42 r, 18.69m,0000000003Hz,0000164087c,0000000.356s, 007.7C,00002191
2016-02-15 00:31:42 r, 18.75m,0000000002Hz,0000173710c,0000000.377s, 008.0C,00002191
2016-02-15 00:41:42 r, 18.39m,0000000003Hz,0000124793c,0000000.271s, 008.0C,00002191
2016-02-15 00:51:42 r, 18.36m,0000000004Hz,0000120748c,0000000.262s, 008.0C,00002191
2016-02-15 01:01:42 r, 18.43m,0000000004Hz,0000129617c,0000000.281s, 008.0C,00002191
2016-02-15 01:11:42 r, 18.89m,0000000002Hz,0000196993c,0000000.428s, 008.3C,00002191
2016-02-15 01:21:42 r, 18.88m,0000000002Hz,0000194812c,0000000.423s, 008.3C,00002191
2016-02-15 01:31:42 r, 18.95m,0000000002Hz,0000208289c,0000000.452s, 008.3C,00002191
2016-02-15 01:41:43 r, 19.34m,0000000001Hz,0000299423c,0000000.650s, 008.3C,00002191
2016-02-15 01:51:42 r, 20.41m,0000000000Hz,0000790987c,0000001.717s, 008.3C,00002191
2016-02-15 02:01:42 r, 20.19m,0000000001Hz,0000650668c,0000001.412s, 008.0C,00002191
2016-02-15 02:11:42 r, 20.10m,0000000001Hz,0000594340c,0000001.290s, 007.7C,00002191
2016-02-15 02:21:42 r, 20.21m,0000000001Hz,0000662475c,0000001.438s, 007.4C,00002191
2016-02-15 02:31:42 r, 20.06m,0000000001Hz,0000575882c,0000001.250s, 007.0C,00002191
2016-02-15 02:41:42 r, 20.03m,0000000001Hz,0000559609c,0000001.214s, 007.0C,00002191
2016-02-15 02:51:42 r, 19.80m,0000000002Hz,0000456058c,0000000.990s, 007.0C,00002191
2016-02-15 03:01:42 r, 19.38m,0000000002Hz,0000311218c,0000000.675s, 007.0C,00002191
2016-02-15 03:11:42 r, 19.68m,0000000001Hz,0000407880c,0000000.885s, 007.0C,00002191
2016-02-15 03:21:42 r, 20.02m,0000000001Hz,0000553766c,0000001.202s, 007.0C,00002191
2016-02-15 03:31:42 r, 20.33m,0000000001Hz,0000733904c,0000001.593s, 007.0C,00002191
2016-02-15 03:41:42 r, 20.29m,0000000001Hz,0000711417c,0000001.544s, 007.0C,00002191
2016-02-15 03:51:42 r, 20.30m,0000000001Hz,0000715373c,0000001.552s, 006.7C,00002191
2016-02-15 04:01:42 r, 20.30m,0000000001Hz,0000712974c,0000001.547s, 006.7C,00002191
2016-02-15 04:11:42 r, 20.26m,0000000000Hz,0000694957c,0000001.508s, 006.4C,00002191
2016-02-15 04:21:42 r, 20.24m,0000000000Hz,0000676751c,0000001.469s, 006.4C,00002191
2016-02-15 04:31:42 r, 20.22m,0000000001Hz,0000665265c,0000001.444s, 006.4C,00002191
2016-02-15 04:41:42 r, 20.22m,0000000001Hz,0000666082c,0000001.445s, 006.1C,00002191
2016-02-15 04:51:42 r, 20.18m,0000000001Hz,0000645100c,0000001.400s, 006.1C,00002191
2016-02-15 05:01:42 r, 20.12m,0000000001Hz,0000608420c,0000001.320s, 005.8C,00002191
2016-02-15 05:11:44 r, 19.72m,0000000001Hz,0000420361c,0000000.912s, 005.8C,00002191
2016-02-15 05:21:42 r, 20.00m,0000000001Hz,0000547965c,0000001.189s, 005.4C,00002191
2016-02-15 05:31:42 r, 19.24m,0000000002Hz,0000272725c,0000000.592s, 005.4C,00002191
2016-02-15 05:41:43 r, 19.72m,0000000001Hz,0000419420c,0000000.910s, 005.4C,00002191
2016-02-15 05:51:42 r, 18.90m,0000000002Hz,0000198746c,0000000.431s, 005.8C,00002191
2016-02-15 06:01:42 r, 19.79m,0000000001Hz,0000448631c,0000000.974s, 006.1C,00002191
2016-02-15 06:11:43 r, 20.03m,0000000000Hz,0000558887c,0000001.213s, 006.1C,00002191
2016-02-15 06:21:42 r, 19.69m,0000000001Hz,0000410880c,0000000.892s, 006.1C,00002191
2016-02-15 06:31:42 r, 18.79m,0000000002Hz,0000179524c,0000000.390s, 005.4C,00002191
2016-02-15 06:41:43 r, 17.39m,0000000010Hz,0000049867c,0000000.108s, 005.1C,00002191
2016-02-15 06:51:42 r, 15.72m,0000000044Hz,0000010631c,0000000.023s, 005.1C,00002191
2016-02-15 07:01:42 r, 13.76m,0000000265Hz,0000000000c,0000000.000s, 004.8C,00002191
2016-02-15 07:11:42 r, 11.61m,0000001918Hz,0000000000c,0000000.000s, 004.5C,00002191
2016-02-15 07:21:42 r, 09.65m,0000011669Hz,0000000000c,0000000.000s, 004.1C,00002191
2016-02-15 07:31:42 r, 08.15m,0000046510Hz,0000000000c,0000000.000s, 004.1C,00002191
2016-02-15 07:41:42 r, 07.09m,0000123219Hz,0000000000c,0000000.000s, 004.1C,00002191
2016-02-15 07:51:43 r, 06.33m,0000248982Hz,0000000000c,0000000.000s, 004.1C,00002191
2016-02-15 08:01:42 r, 00.00m,0000419575Hz,0000000000c,0000000.000s, 004.1C,00002191
2016-02-15 08:11:42 r, 00.00m,0000597511Hz,0000000000c,0000000.000s, 005.1C,00002191
2016-02-15 08:21:42 r, 00.00m,0000597417Hz,0000000000c,0000000.000s, 006.4C,00002191
2016-02-15 08:31:42 r, 00.00m,0000597364Hz,0000000000c,0000000.000s, 007.7C,00002191
2016-02-15 08:41:42 r, 00.00m,0000597221Hz,0000000000c,0000000.000s, 008.3C,00002191
2016-02-15 08:51:42 r, 00.00m,0000597203Hz,0000000000c,0000000.000s, 009.0C,00002191
2016-02-15 09:01:42 r, 00.00m,0000597148Hz,0000000000c,0000000.000s, 009.9C,00002191
2016-02-15 09:11:42 r, 00.00m,0000597088Hz,0000000000c,0000000.000s, 010.3C,00002191
2016-02-15 09:21:42 r, 00.00m,0000596999Hz,0000000000c,0000000.000s, 010.6C,00002191
2016-02-15 09:31:42 r, 00.00m,0000596827Hz,0000000000c,0000000.000s, 011.9C,00002191
2016-02-15 09:41:42 r, 00.00m,0000596705Hz,0000000000c,0000000.000s, 013.2C,00002191
2016-02-15 09:51:42 r, 00.00m,0000596647Hz,0000000000c,0000000.000s, 014.1C,00002191
2016-02-15 10:01:42 r, 00.00m,0000596562Hz,0000000000c,0000000.000s, 015.1C,00002191
2016-02-15 10:11:42 r, 00.00m,0000596529Hz,0000000000c,0000000.000s, 016.1C,00002191
2016-02-15 10:21:42 r, 00.00m,0000596400Hz,0000000000c,0000000.000s, 016.4C,00002191
2016-02-15 10:31:42 r, 00.00m,0000596392Hz,0000000000c,0000000.000s, 017.0C,00002191
2016-02-15 10:41:42 r, 00.00m,0000596336Hz,0000000000c,0000000.000s, 017.4C,00002191
2016-02-15 10:51:42 r, 00.00m,0000596204Hz,0000000000c,0000000.000s, 018.0C,00002191
2016-02-15 11:01:42 r, 00.00m,0000596075Hz,0000000000c,0000000.000s, 019.6C,00002191
2016-02-15 11:11:42 r, 00.00m,0000596057Hz,0000000000c,0000000.000s, 019.9C,00002191
2016-02-15 11:21:42 r, 00.00m,0000596052Hz,0000000000c,0000000.000s, 019.6C,00002191
2016-02-15 11:31:42 r, 00.00m,0000595969Hz,0000000000c,0000000.000s, 019.9C,00002191
2016-02-15 11:41:42 r, 00.00m,0000595968Hz,0000000000c,0000000.000s, 019.9C,00002191
2016-02-15 11:51:42 r, 00.00m,0000595885Hz,0000000000c,0000000.000s, 019.9C,00002191
2016-02-15 12:01:42 r, 00.00m,0000596034Hz,0000000000c,0000000.000s, 019.9C,00002191
2016-02-15 12:11:42 r, 00.00m,0000595985Hz,0000000000c,0000000.000s, 019.9C,00002191
2016-02-15 12:21:43 r, 00.00m,0000595951Hz,0000000000c,0000000.000s, 019.6C,00002191
2016-02-15 12:31:42 r, 00.00m,0000595942Hz,0000000000c,0000000.000s, 019.3C,00002191
2016-02-15 12:41:42 r, 00.00m,0000596056Hz,0000000000c,0000000.000s, 019.6C,00002191
2016-02-15 12:51:42 r, 00.00m,0000596011Hz,0000000000c,0000000.000s, 018.6C,00002191
2016-02-15 13:01:42 r, 00.00m,0000596208Hz,0000000000c,0000000.000s, 018.0C,00002191
2016-02-15 13:11:42 r, 00.00m,0000596255Hz,0000000000c,0000000.000s, 018.3C,00002191
2016-02-15 13:21:43 r, 00.00m,0000596310Hz,0000000000c,0000000.000s, 017.4C,00002191
2016-02-15 13:31:42 r, 00.00m,0000596375Hz,0000000000c,0000000.000s, 016.4C,00002191
2016-02-15 13:41:42 r, 00.00m,0000596353Hz,0000000000c,0000000.000s, 015.7C,00002191
2016-02-15 13:51:42 r, 00.00m,0000596422Hz,0000000000c,0000000.000s, 015.4C,00002191
2016-02-15 14:01:42 r, 00.00m,0000596361Hz,0000000000c,0000000.000s, 016.4C,00002191
2016-02-15 14:11:42 r, 00.00m,0000596267Hz,0000000000c,0000000.000s, 017.0C,00002191
2016-02-15 14:21:42 r, 00.00m,0000596245Hz,0000000000c,0000000.000s, 017.4C,00002191
2016-02-15 14:31:42 r, 00.00m,0000596285Hz,0000000000c,0000000.000s, 017.7C,00002191
2016-02-15 14:41:42 r, 00.00m,0000596160Hz,0000000000c,0000000.000s, 017.7C,00002191
2016-02-15 14:51:42 r, 00.00m,0000596167Hz,0000000000c,0000000.000s, 017.0C,00002191
2016-02-15 15:01:42 r, 00.00m,0000596262Hz,0000000000c,0000000.000s, 016.7C,00002191
2016-02-15 15:11:42 r, 00.00m,0000596228Hz,0000000000c,0000000.000s, 017.0C,00002191
2016-02-15 15:21:42 r, 00.00m,0000596280Hz,0000000000c,0000000.000s, 016.4C,00002191
2016-02-15 15:31:41 r, 00.00m,0000596402Hz,0000000000c,0000000.000s, 016.1C,00002191
2016-02-15 15:41:42 r, 00.00m,0000596402Hz,0000000000c,0000000.000s, 015.4C,00002191
2016-02-15 15:51:42 r, 00.00m,0000596423Hz,0000000000c,0000000.000s, 015.4C,00002191
2016-02-15 16:01:42 r, 00.00m,0000596443Hz,0000000000c,0000000.000s, 014.8C,00002191
2016-02-15 16:11:42 r, 00.00m,0000596478Hz,0000000000c,0000000.000s, 014.5C,00002191
2016-02-15 16:21:43 r, 00.00m,0000596568Hz,0000000000c,0000000.000s, 013.8C,00002191
2016-02-15 16:31:42 r, 00.00m,0000596518Hz,0000000000c,0000000.000s, 013.5C,00002191
2016-02-15 16:41:42 r, 00.00m,0000596604Hz,0000000000c,0000000.000s, 013.2C,00002191
2016-02-15 16:51:42 r, 00.00m,0000596571Hz,0000000000c,0000000.000s, 012.8C,00002191
2016-02-15 17:01:42 r, 00.00m,0000596701Hz,0000000000c,0000000.000s, 012.2C,00002191
2016-02-15 17:11:42 r, 00.00m,0000596717Hz,0000000000c,0000000.000s, 011.9C,00002191
2016-02-15 17:21:42 r, 00.00m,0000505019Hz,0000000000c,0000000.000s, 011.6C,00002191
2016-02-15 17:31:42 r, 06.12m,0000301080Hz,0000000000c,0000000.000s, 010.9C,00002191
2016-02-15 17:41:42 r, 06.89m,0000149484Hz,0000000000c,0000000.000s, 010.3C,00002191
2016-02-15 17:51:42 r, 08.00m,0000053457Hz,0000000000c,0000000.000s, 009.9C,00002191
2016-02-15 18:01:42 r, 09.32m,0000015857Hz,0000000000c,0000000.000s, 009.3C,00002191
2016-02-15 18:11:42 r, 11.10m,0000003060Hz,0000000000c,0000000.000s, 008.7C,00002191
2016-02-15 18:21:42 r, 13.34m,0000000391Hz,0000000000c,0000000.000s, 008.0C,00002191
2016-02-15 18:31:42 r, 15.40m,0000000059Hz,0000007892c,0000000.017s, 007.7C,00002191
2016-02-15 18:41:42 r, 16.46m,0000000022Hz,0000021071c,0000000.046s, 007.7C,00002191
2016-02-15 18:51:42 r, 16.89m,0000000015Hz,0000031145c,0000000.068s, 007.4C,00002191
2016-02-15 19:01:42 r, 17.23m,0000000011Hz,0000042827c,0000000.093s, 007.4C,00002191
2016-02-15 19:11:42 r, 17.55m,0000000008Hz,0000057328c,0000000.124s, 007.0C,00002191
2016-02-15 19:21:42 r, 17.57m,0000000007Hz,0000058547c,0000000.127s, 006.7C,00002191
2016-02-15 19:31:42 r, 17.35m,0000000009Hz,0000047715c,0000000.104s, 007.0C,00002191
2016-02-15 19:41:42 r, 17.23m,0000000011Hz,0000042987c,0000000.093s, 007.0C,00002191
2016-02-15 19:51:42 r, 17.47m,0000000009Hz,0000053726c,0000000.117s, 007.4C,00002191
2016-02-15 20:01:42 r, 17.40m,0000000009Hz,0000050052c,0000000.109s, 007.4C,00002191
2016-02-15 20:11:42 r, 17.39m,0000000009Hz,0000049914c,0000000.108s, 007.7C,00002191
2016-02-15 20:21:42 r, 17.40m,0000000009Hz,0000049998c,0000000.109s, 008.0C,00002191
2016-02-15 20:31:42 r, 17.31m,0000000010Hz,0000046202c,0000000.100s, 008.3C,00002191
2016-02-15 20:41:42 r, 17.35m,0000000009Hz,0000047650c,0000000.103s, 008.7C,00002191
2016-02-15 20:51:43 r, 17.69m,0000000007Hz,0000065170c,0000000.141s, 008.7C,00002191
2016-02-15 21:01:42 r, 17.53m,0000000008Hz,0000056485c,0000000.123s, 008.7C,00002191
2016-02-15 21:11:42 r, 17.54m,0000000008Hz,0000056381c,0000000.122s, 009.0C,00002191
2016-02-15 21:21:43 r, 17.52m,0000000009Hz,0000055514c,0000000.120s, 009.0C,00002191
2016-02-15 21:31:42 r, 17.53m,0000000009Hz,0000055824c,0000000.121s, 009.0C,00002191
2016-02-15 21:41:41 r, 17.66m,0000000007Hz,0000063031c,0000000.137s, 009.0C,00002191
2016-02-15 21:51:43 r, 17.67m,0000000007Hz,0000063738c,0000000.138s, 009.0C,00002191
2016-02-15 22:01:42 r, 17.69m,0000000008Hz,0000064550c,0000000.140s, 009.0C,00002191
2016-02-15 22:11:42 r, 17.70m,0000000007Hz,0000065205c,0000000.142s, 009.0C,00002191
2016-02-15 22:21:42 r, 17.71m,0000000007Hz,0000066340c,0000000.144s, 009.0C,00002191
2016-02-15 22:31:41 r, 17.62m,0000000008Hz,0000060523c,0000000.131s, 009.0C,00002191
2016-02-15 22:41:42 r, 17.66m,0000000007Hz,0000063427c,0000000.138s, 009.0C,00002191
2016-02-15 22:51:42 r, 17.76m,0000000007Hz,0000069222c,0000000.150s, 009.0C,00002191
2016-02-15 23:01:42 r, 17.76m,0000000007Hz,0000070008c,0000000.152s, 008.7C,00002191
2016-02-15 23:11:42 r, 17.74m,0000000007Hz,0000068382c,0000000.148s, 008.7C,00002191
2016-02-15 23:21:43 r, 17.86m,0000000006Hz,0000076755c,0000000.167s, 008.7C,00002191
2016-02-15 23:31:42 r, 17.63m,0000000007Hz,0000061645c,0000000.134s, 008.3C,00002191
2016-02-15 23:41:41 r, 17.66m,0000000008Hz,0000063967c,0000000.139s, 008.0C,00002191
2016-02-15 23:51:42 r, 17.62m,0000000008Hz,0000061323c,0000000.133s, 007.7C,00002191
